Stations météo

réclame
Mon MeteoGroup
Weißenburg-Emetzheim, Allemagne (10761): Température de l'air & dewpoint: 20.09.2018 09:00:00 - 26.09.2018 09:00:00 (CEST)Weißenburg-Emetzheim, Allemagne (10761): Température de l'air 5cm & Température de l'air -5cm: 20.09.2018 09:00:00 - 26.09.2018 09:00:00 (CEST)Weißenburg-Emetzheim, Allemagne (10761): Température de l'air -20cm & Température de l'air -100cm: 20.09.2018 09:00:00 - 26.09.2018 09:00:00 (CEST)Weißenburg-Emetzheim, Allemagne (10761): Vitesse du vent & gusts: 20.09.2018 09:00:00 - 26.09.2018 09:00:00 (CEST)Weißenburg-Emetzheim, Allemagne (10761): Direction du vent: 20.09.2018 09:00:00 - 26.09.2018 09:00:00 (CEST)Weißenburg-Emetzheim, Allemagne (10761): reduced air pressure: 20.09.2018 09:00:00 - 26.09.2018 09:00:00 (CEST)Weißenburg-Emetzheim, Allemagne (10761): visibility: 20.09.2018 09:00:00 - 26.09.2018 09:00:00 (CEST)Weißenburg-Emetzheim, Allemagne (10761): Ensoleillement: 20.09.2018 09:00:00 - 26.09.2018 09:00:00 (CEST)Weißenburg-Emetzheim, Allemagne (10761): Quantités de précipitations: 20.09.2018 09:00:00 - 26.09.2018 09:00:00 (CEST)
Date & Time tt [°C] td [°C] tt 5cm [°C] tt -5cm [°C] tt -20cm [°C] tt -100cm [°C] ff [km/h] ff [knt] fx [km/h] fx [knt] dd ppp [hPa] vv [km] sd [min] rr [mm]
26.09.2018 09:00:00 6,5 -0,5 8,4 5,9 10,9 17,9 8 4 28 15 S 1036,8 40 60 0,0
26.09.2018 08:00:00 4,0 -0,8 2,6 4,2 11,2 17,9 13 7 23 13 S 1037,3 31 15 0,0
26.09.2018 07:00:00 3,0 -0,6 -1,1 4,0 11,4 17,9 5 3 11 6 SW 1037,4 70 0 0,0
26.09.2018 06:00:00 -0,1 -1,0 -1,5 4,4 11,7 17,9 2 1 11 6 S 1038,2 70 0 0,0
26.09.2018 05:00:00 1,7 -0,3 -1,5 4,8 12,0 17,9 4 2 9 5 SW 1038,3 70 0 0,0
26.09.2018 04:00:00 4,0 -0,2 -0,3 5,1 12,3 18,0 4 2 10 5 SSW 1037,9 70 0 0,0
26.09.2018 03:00:00 0,8 0,0 -0,5 5,4 12,6 18,0 6 3 10 6 SSW 1039,0 55 0 0,0
26.09.2018 02:00:00 2,0 0,2 -1,3 5,9 12,9 18,0 4 2 6 4 SSW 1039,8 70 0 0,0
26.09.2018 01:00:00 4,1 0,3 -0,6 6,4 13,2 18,0 3 2 8 4 S 1039,6 70 0 0,0
26.09.2018 00:00:00 4,2 0,6 0,8 7,0 13,5 18,0 5 3 10 5 S 1040,0 70 0 0,0
25.09.2018 23:00:00 4,7 1,1 0,0 7,6 13,9 18,1 4 2 6 4 S 1040,1 70 0 0,0
25.09.2018 22:00:00 6,2 0,7 1,7 8,4 14,2 18,1 4 2 7 4 WSW 1039,9 70 0 0,0
25.09.2018 21:00:00 6,7 1,5 3,7 9,4 14,4 18,1 6 3 11 6 N 1039,7 70 0 0,0
25.09.2018 20:00:00 8,1 1,1 4,9 10,7 14,6 18,1 6 3 16 8 ENE 1038,5 70 2 0,0
25.09.2018 19:00:00 9,7 1,3 7,0 12,6 14,6 18,1 6 4 22 12 E 1038,4 70 47 0,0
25.09.2018 18:00:00 11,5 -0,3 11,4 15,3 14,4 18,1 11 6 18 10 ENE 1037,7 70 56 0,0
25.09.2018 17:00:00 12,1 0,0 13,0 16,6 14,2 18,1 13 7 22 12 ENE 1037,7 42 54 0,0
25.09.2018 16:00:00 11,6 -0,2 15,2 15,8 13,8 18,2 8 5 22 12 NNE 1038,2 70 34 0,0
25.09.2018 15:00:00 11,9 0,4 16,4 17,6 13,4 18,2 7 4 24 13 NNE 1038,2 38 45 0,0
25.09.2018 14:00:00 11,4 0,2 16,0 17,9 12,9 18,2 11 6 22 12 E 1038,6 26 53 0,0
25.09.2018 13:00:00 10,3 0,5 15,9 15,7 12,4 18,2 10 5 24 13 N 1039,1 31 52 0,0
25.09.2018 12:00:00 9,6 1,7 15,7 14,1 12,1 18,2 8 5 19 11 N 1039,4 34 51 0,0
25.09.2018 11:00:00 8,3 3,1 12,8 12,1 11,9 18,2 11 6 16 9 NNE 1039,7 51 52 0,0
25.09.2018 10:00:00 6,9 3,2 11,7 9,9 11,9 18,2 3 2 7 4 SE 1039,9 43 60 0,0
25.09.2018 09:00:00 4,4 2,7 6,2 6,8 12,0 18,3 4 2 6 3 SSE 1039,5 22 60 0,0
25.09.2018 08:00:00 2,5 2,1 2,5 5,1 12,3 18,3 4 2 6 4 WSW 1039,2 18 17 0,0
25.09.2018 07:00:00 1,8 1,6 0,0 5,2 12,5 18,3 2 1 7 4 SW 1038,9 9 0 0,0
25.09.2018 06:00:00 2,9 2,6 -0,4 5,7 12,8 18,3 3 2 8 4 N 1038,1 21 0 0,0
25.09.2018 05:00:00 3,4 2,7 0,9 6,1 13,0 18,3 6 3 7 4 NW 1037,9 34 0 0,0
25.09.2018 04:00:00 3,9 2,5 2,1 6,6 13,3 18,3 6 3 11 6 NW 1037,6 38 0 0,0
25.09.2018 03:00:00 5,7 3,4 1,4 7,1 13,5 18,3 3 2 5 3 WSW 1037,1 66 0 0,0
25.09.2018 02:00:00 5,3 3,4 2,8 7,5 13,8 18,3 0 0 8 5 N 1037,0 50 0 0,0
25.09.2018 01:00:00 5,1 3,2 3,2 7,5 14,1 18,3 6 3 15 8 WSW 1036,6 53 0 0,0
25.09.2018 00:00:00 6,4 3,1 2,6 7,9 14,4 18,4 9 5 11 6 W 1036,0 70 0 0,0
24.09.2018 23:00:00 6,3 3,2 3,7 8,5 14,7 18,4 4 2 13 7 W 1035,4 70 0 0,0
24.09.2018 22:00:00 6,4 3,0 3,1 8,7 15,0 18,4 4 2 8 4 W 1035,1 62 0 0,0
24.09.2018 21:00:00 6,9 3,0 2,9 9,4 15,3 18,4 5 3 12 7 S 1034,6 70 0 0,0
24.09.2018 20:00:00 8,9 2,8 5,2 10,3 15,5 18,4 10 6 16 9 W 1033,6 54 0 0,0
24.09.2018 19:00:00 10,3 2,9 8,5 11,9 15,6 18,4 14 8 27 14 WNW 1032,7 70 57 0,0
24.09.2018 18:00:00 11,8 2,5 11,6 13,5 15,7 18,4 13 7 24 13 NW 1032,0 36 33 0,0
24.09.2018 17:00:00 11,3 2,4 11,1 14,8 15,6 18,4 21 11 37 20 NW 1032,2 63 48 0,0
24.09.2018 16:00:00 12,0 1,4 14,6 15,9 15,4 18,4 22 12 40 22 WNW 1032,3 23 47 0,0
24.09.2018 15:00:00 11,5 3,2 14,3 15,8 15,2 18,4 27 15 41 22 NW 1032,3 28 44 0,0
24.09.2018 14:00:00 11,6 3,4 15,4 16,7 14,9 18,4 29 16 42 23 WNW 1032,7 27 46 0,0
24.09.2018 13:00:00 10,7 3,0 15,5 15,5 14,7 18,4 25 13 41 22 WNW 1032,9 56 45 0,0
24.09.2018 12:00:00 10,1 3,2 14,5 14,6 14,6 18,5 28 15 39 21 WNW 1032,8 31 45 0,0
24.09.2018 11:00:00 9,4 4,2 13,4 13,0 14,5 18,5 28 15 38 21 WNW 1032,4 20 41 0,0
24.09.2018 10:00:00 8,3 5,2 9,6 11,1 14,7 18,5 24 13 41 22 NW 1031,8 41 18 0,0
24.09.2018 09:00:00 7,4 5,0 8,0 9,7 14,9 18,5 26 14 36 20 WNW 1030,9 43 0 0,0
24.09.2018 08:00:00 6,8 5,4 6,7 8,6 15,2 18,5 20 11 28 15 WNW 1029,7 37 1 0,0
24.09.2018 07:00:00 6,9 5,5 6,4 9,1 15,5 18,5 13 7 23 12 NW 1028,7 57 0 0,0
24.09.2018 06:00:00 6,9 5,2 5,8 9,6 15,8 18,5 19 11 29 16 WNW 1027,7 70 0 0,0
24.09.2018 05:00:00 7,4 5,5 7,1 10,1 16,1 18,5 19 10 27 15 WNW 1027,1 70 0 0,0
24.09.2018 04:00:00 7,6 5,3 7,3 10,4 16,4 18,5 22 12 34 18 WNW 1026,3 70 0 0,0
24.09.2018 03:00:00 7,7 5,5 7,1 10,8 16,8 18,5 22 12 31 17 NW 1025,0 70 0 0,0
24.09.2018 02:00:00 8,3 6,0 8,0 11,4 17,1 18,5 22 12 44 24 WNW 1023,6 70 0 0,0
24.09.2018 01:00:00 8,9 6,2 8,5 11,9 17,5 18,6 29 16 52 28 NW 1021,3 70 0 0,0
24.09.2018 00:00:00 9,8 7,4 9,2 12,7 17,8 18,6 30 16 61 33 NW 1018,5 70 0 0,0
23.09.2018 23:00:00 10,9 9,0 10,2 13,9 18,1 18,6 43 23 69 37 NW 1015,0 70 0 0,1
23.09.2018 22:00:00 13,1 11,5 12,3 15,1 18,3 18,6 27 15 55 30 W 1011,4 15 0 1,2
23.09.2018 21:00:00 14,3 12,7 13,4 16,1 18,5 18,6 23 12 51 28 WNW 1009,1 18 0 3,9
23.09.2018 20:00:00 15,0 13,8 14,2 17,1 18,5 18,6 27 15 95 51 W 1007,9 7 0 6,8
23.09.2018 19:00:00 23,1 14,7 22,1 20,3 18,4 18,6 37 20 72 39 SW 1003,4 70 1 0,0
23.09.2018 18:00:00 23,4 15,0 23,0 21,7 18,1 18,6 39 21 70 38 SW 1003,7 57 21 0,0
23.09.2018 17:00:00 23,2 15,5 23,7 22,9 17,8 18,6 39 21 65 35 SW 1005,6 38 50 0,0
23.09.2018 16:00:00 23,8 15,7 25,7 23,5 17,3 18,6 46 25 66 36 WSW 1007,0 17 54 0,0
23.09.2018 15:00:00 22,4 16,6 24,6 22,4 16,9 18,6 30 16 49 27 SW 1008,7 37 40 0,0
23.09.2018 14:00:00 21,0 17,6 23,7 20,4 16,6 18,6 24 13 38 21 SSW 1010,5 45 10 0,0
23.09.2018 13:00:00 18,5 16,4 19,0 18,0 16,5 18,6 25 13 43 23 SSW 1012,3 61 0 0,0
23.09.2018 12:00:00 17,3 14,7 17,2 17,0 16,4 18,6 20 11 29 16 S 1013,2 70 0 0,0
23.09.2018 11:00:00 15,5 13,5 15,7 15,6 16,4 18,7 14 8 25 14 S 1014,2 70 0 0,0
23.09.2018 10:00:00 13,3 12,4 13,2 14,0 16,4 18,7 14 8 22 12 S 1015,0 47 0 0,0
23.09.2018 09:00:00 12,0 11,4 11,8 13,4 16,5 18,7 14 8 23 13 SSE 1015,5 28 0 0,0
23.09.2018 08:00:00 11,2 11,0 11,1 13,1 16,6 18,7 13 7 21 11 S 1016,1 5 0 0,2
23.09.2018 07:00:00 10,6 10,5 10,6 12,9 16,8 18,7 13 7 19 10 S 1017,1 5 0 0,2
23.09.2018 06:00:00 10,1 9,9 10,1 12,9 16,9 18,7 13 7 22 12 S 1018,2 8 0 0,1
23.09.2018 05:00:00 10,8 8,8 10,5 13,0 17,1 18,7 12 6 21 11 S 1019,1 70 0 0,0
23.09.2018 04:00:00 10,5 8,2 9,9 13,1 17,3 18,7 13 7 19 10 S 1019,9 70 0 0,0
23.09.2018 03:00:00 10,2 9,6 10,0 13,5 17,5 18,7 8 5 13 7 S 1020,6 47 0 0,0
23.09.2018 02:00:00 10,2 9,7 10,1 13,8 17,6 18,7 6 4 12 6 S 1021,1 29 0 0,1
23.09.2018 01:00:00 10,5 9,3 10,3 14,2 17,8 18,7 5 3 10 6 S 1021,3 36 0 0,3
23.09.2018 00:00:00 11,0 9,8 10,6 14,5 18,0 18,7 6 3 9 5 S 1021,3 11 0 0,2
22.09.2018 23:00:00 11,8 9,0 11,2 15,0 18,1 18,7 4 2 8 4 SW 1021,3 70 0 0,0
22.09.2018 22:00:00 12,8 7,2 11,2 15,4 18,3 18,7 5 3 21 11 WNW 1021,0 70 0 0,3
22.09.2018 21:00:00 13,9 6,0 12,7 16,2 18,4 18,7 5 3 10 6 W 1020,9 70 0 0,0
22.09.2018 20:00:00 13,9 7,4 13,0 16,8 18,5 18,7 5 3 7 4 S 1020,3 69 0 0,0
22.09.2018 19:00:00 14,9 5,4 14,3 17,8 18,4 18,7 6 3 19 11 SSW 1019,7 70 2 0,0
22.09.2018 18:00:00 16,1 3,0 16,7 19,6 18,3 18,7 11 6 29 15 W 1020,3 70 36 0,0
22.09.2018 17:00:00 16,4 2,8 18,7 21,3 18,0 18,7 19 10 31 17 WSW 1020,9 53 51 0,0
22.09.2018 16:00:00 16,2 4,2 18,5 21,2 17,6 18,7 15 8 37 20 SW 1021,0 42 46 0,0
22.09.2018 15:00:00 16,2 3,2 21,6 21,2 17,3 18,7 21 11 40 22 WSW 1021,9 33 55 0,0
22.09.2018 14:00:00 15,7 5,1 22,1 19,9 17,1 18,7 21 11 36 19 W 1022,5 22 40 0,0
22.09.2018 13:00:00 14,4 4,8 18,8 17,5 16,9 18,7 23 12 36 19 WSW 1023,2 41 58 0,0
22.09.2018 12:00:00 13,8 6,9 17,6 16,3 16,8 18,7 14 8 26 14 SW 1024,1 48 25 0,0
22.09.2018 11:00:00 12,4 6,4 14,4 14,7 16,8 18,7 19 10 26 14 SW 1024,4 50 7 0,0
22.09.2018 10:00:00 11,6 7,1 12,7 13,5 16,9 18,7 13 7 20 11 SW 1024,7 64 0 0,0
22.09.2018 09:00:00 10,4 7,1 10,7 12,5 17,1 18,7 11 6 15 8 SSW 1024,6 70 0 0,0
22.09.2018 08:00:00 9,4 6,9 8,3 11,4 17,4 18,7 8 5 16 9 SSW 1024,1 65 0 0,0
22.09.2018 07:00:00 9,4 7,1 7,9 11,3 17,7 18,7 10 5 16 9 SSW 1023,9 65 0 0,0
22.09.2018 06:00:00 9,7 6,8 8,4 11,4 18,0 18,7 14 7 26 14 SSW 1023,6 68 0 0,0
22.09.2018 05:00:00 10,4 6,3 8,8 11,7 18,3 18,7 15 8 22 12 SSW 1023,1 70 0 0,0
22.09.2018 04:00:00 10,7 6,6 8,7 12,1 18,6 18,7 14 8 23 12 SW 1022,8 70 0 0,0
22.09.2018 03:00:00 11,2 7,3 9,2 12,9 18,9 18,7 15 8 26 14 WSW 1022,1 70 0 0,0
22.09.2018 02:00:00 12,0 8,0 10,6 13,7 19,2 18,7 13 7 25 14 WSW 1021,8 70 0 0,0
22.09.2018 01:00:00 12,0 8,5 10,7 14,1 19,5 18,7 13 7 25 14 W 1020,8 70 0 0,0
22.09.2018 00:00:00 11,9 9,2 10,9 14,7 19,8 18,7 8 4 21 11 W 1019,9 46 0 0,0
21.09.2018 23:00:00 12,1 9,5 11,5 14,9 20,2 18,7 14 8 30 16 WNW 1019,0 44 0 0,0
21.09.2018 22:00:00 12,5 9,1 11,7 15,5 20,5 18,7 15 8 36 19 WNW 1018,5 70 0 0,0
21.09.2018 21:00:00 13,4 9,8 12,2 16,7 20,8 18,7 18 10 39 21 WNW 1016,7 70 0 0,2
21.09.2018 20:00:00 14,2 13,2 13,8 17,8 21,0 18,7 24 13 64 35 NW 1015,1 47 0 0,3
21.09.2018 19:00:00 18,4 15,4 16,9 19,7 21,2 18,7 8 5 30 16 S 1010,7 47 0 0,1
21.09.2018 18:00:00 19,2 15,2 18,0 20,4 21,3 18,7 23 12 47 26 SSW 1010,2 46 0 0,5
21.09.2018 17:00:00 20,0 15,3 17,2 22,5 21,1 18,7 29 16 59 32 SW 1010,6 7 0 0,9
21.09.2018 16:00:00 26,0 13,5 27,3 25,3 20,9 18,7 21 11 35 19 SW 1008,5 48 0 0,0
21.09.2018 15:00:00 26,5 14,1 28,4 27,0 20,4 18,7 14 8 34 18 SSW 1008,6 37 23 0,0
21.09.2018 14:00:00 26,8 13,9 30,5 27,4 20,0 18,7 21 11 33 18 SSW 1009,2 24 46 0,0
21.09.2018 13:00:00 26,0 14,3 31,1 26,4 19,6 18,7 18 10 32 17 S 1009,9 33 45 0,0
21.09.2018 12:00:00 23,8 14,0 25,5 24,1 19,3 18,7 16 9 27 15 S 1010,9 40 46 0,0
21.09.2018 11:00:00 22,0 14,3 25,7 21,7 19,2 18,7 21 11 29 15 S 1011,5 23 60 0,0
21.09.2018 10:00:00 19,1 13,3 22,2 18,9 19,2 18,7 18 10 29 15 SSE 1012,5 13 60 0,0
21.09.2018 09:00:00 16,7 12,7 18,1 16,8 19,4 18,7 18 10 27 15 S 1013,0 16 60 0,0
21.09.2018 08:00:00 15,3 12,8 15,2 15,8 19,6 18,7 20 11 27 15 S 1013,4 13 23 0,0
21.09.2018 07:00:00 14,4 12,7 13,5 15,8 19,8 18,7 20 11 24 13 S 1013,4 15 0 0,0
21.09.2018 06:00:00 13,7 12,5 12,4 15,9 20,1 18,7 13 7 16 9 S 1014,0 16 0 0,0
21.09.2018 05:00:00 14,8 12,8 13,2 16,3 20,3 18,7 11 6 16 9 S 1014,4 20 0 0,0
21.09.2018 04:00:00 14,5 12,7 13,0 16,8 20,6 18,7 11 6 15 8 SSW 1014,9 23 0 0,0
21.09.2018 03:00:00 15,8 12,8 14,0 17,4 20,8 18,7 12 7 17 9 SSW 1015,0 26 0 0,0
21.09.2018 02:00:00 17,8 13,0 16,0 17,9 21,1 18,7 13 7 17 9 S 1015,0 34 0 0,0
21.09.2018 01:00:00 18,9 13,2 17,0 18,3 21,4 18,7 14 7 17 9 S 1015,2 42 0 0,0
21.09.2018 00:00:00 16,7 12,8 15,1 18,8 21,6 18,7 10 5 14 8 S 1016,2 36 0 0,0
20.09.2018 23:00:00 18,1 12,9 16,0 19,5 21,9 18,7 10 6 13 7 S 1016,4 40 0 0,0
20.09.2018 22:00:00 18,4 13,2 16,6 20,3 22,1 18,7 9 5 13 7 SSW 1016,6 43 0 0,0
20.09.2018 21:00:00 20,7 12,9 18,3 21,4 22,3 18,7 10 6 20 11 S 1016,4 54 0 0,0
20.09.2018 20:00:00 22,6 13,0 20,5 22,7 22,4 18,7 10 5 14 8 S 1016,0 63 0 0,0
20.09.2018 19:00:00 24,5 12,8 22,5 25,2 22,3 18,7 7 4 14 7 SSE 1015,8 58 56 0,0
20.09.2018 18:00:00 26,3 12,8 26,5 27,4 22,0 18,7 9 5 19 10 S 1015,9 53 60 0,0
20.09.2018 17:00:00 26,8 12,1 28,5 29,3 21,6 18,7 12 7 21 11 S 1016,1 40 60 0,0
20.09.2018 16:00:00 27,0 12,2 29,9 30,1 21,0 18,6 14 8 24 13 S 1016,6 27 60 0,0
20.09.2018 15:00:00 27,3 13,0 32,0 30,1 20,4 18,6 13 7 23 12 SSW 1017,2 31 60 0,0
20.09.2018 14:00:00 26,7 12,7 31,0 29,2 19,9 18,6 16 8 26 14 S 1017,9 31 60 0,0
20.09.2018 13:00:00 25,3 13,3 29,2 27,3 19,3 18,6 17 9 24 13 S 1018,7 40 60 0,0
20.09.2018 12:00:00 24,1 15,0 29,2 25,1 19,0 18,6 14 8 22 12 S 1019,4 29 60 0,0
20.09.2018 11:00:00 21,8 14,7 26,4 21,9 18,8 18,6 12 6 22 12 S 1020,1 22 60 0,0
20.09.2018 10:00:00 19,2 14,2 22,2 18,9 18,8 18,6 15 8 23 12 S 1020,4 17 60 0,0
20.09.2018 09:00:00 16,9 13,6 18,5 16,6 18,9 18,6 15 8 22 12 S 1020,7 19 59 0,0

tt = Température de l'air
td = dewpoint
tt 5cm = Température de l'air 5cm
tt -5cm = Température de l'air -5cm
tt -20cm = Température de l'air -20cm
tt -100cm = Température de l'air -100cm
ff = Vitesse du vent
fx = gusts
dd = Direction du vent
ppp = reduced air pressure
vv = visibility
sd = Ensoleillement
rr = Quantités de précipitations

stations d'obs. à proximité